Year,Month,Day,Hour,Minute,Value (Times are PST for insolation in W/m^2)
2016,12,10,00,00,0.00
2016,12,10,00,01,0.00
2016,12,10,00,02,0.00
2016,12,10,00,03,0.00
2016,12,10,00,04,0.00
2016,12,10,00,05,0.00
2016,12,10,00,06,0.00
2016,12,10,00,07,0.00
2016,12,10,00,08,0.00
2016,12,10,00,09,0.00
2016,12,10,00,10,0.00
2016,12,10,00,11,0.00
2016,12,10,00,12,0.00
2016,12,10,00,13,0.00
2016,12,10,00,14,0.00
2016,12,10,00,15,0.00
2016,12,10,00,16,0.00
2016,12,10,00,17,0.00
2016,12,10,00,18,0.00
2016,12,10,00,19,0.00
2016,12,10,00,20,0.00
2016,12,10,00,21,0.00
2016,12,10,00,22,0.00
2016,12,10,00,23,0.00
2016,12,10,00,24,0.00
2016,12,10,00,25,0.00
2016,12,10,00,26,0.00
2016,12,10,00,27,0.00
2016,12,10,00,28,0.00
2016,12,10,00,29,0.00
2016,12,10,00,30,0.00
2016,12,10,00,31,0.00
2016,12,10,00,32,0.00
2016,12,10,00,33,0.00
2016,12,10,00,34,0.00
2016,12,10,00,35,0.00
2016,12,10,00,36,0.00
2016,12,10,00,37,0.00
2016,12,10,00,38,0.00
2016,12,10,00,39,0.00
2016,12,10,00,40,0.00
2016,12,10,00,41,0.00
2016,12,10,00,42,0.00
2016,12,10,00,43,0.00
2016,12,10,00,44,0.00
2016,12,10,00,45,0.00
2016,12,10,00,46,0.00
2016,12,10,00,47,0.00
2016,12,10,00,48,0.00
2016,12,10,00,49,0.00
2016,12,10,00,50,0.00
2016,12,10,00,51,0.00
2016,12,10,00,52,0.00
2016,12,10,00,53,0.00
2016,12,10,00,54,0.00
2016,12,10,00,55,0.00
2016,12,10,00,56,0.00
2016,12,10,00,57,0.00
2016,12,10,00,58,0.00
2016,12,10,00,59,0.00
2016,12,10,01,00,0.00
2016,12,10,01,01,0.00
2016,12,10,01,02,0.00
2016,12,10,01,03,0.00
2016,12,10,01,04,0.00
2016,12,10,01,05,0.00
2016,12,10,01,06,0.00
2016,12,10,01,07,0.00
2016,12,10,01,08,0.00
2016,12,10,01,09,0.00
2016,12,10,01,10,0.00
2016,12,10,01,11,0.00
2016,12,10,01,12,0.00
2016,12,10,01,13,0.00
2016,12,10,01,14,0.00
2016,12,10,01,15,0.00
2016,12,10,01,16,0.00
2016,12,10,01,17,0.00
2016,12,10,01,18,0.00
2016,12,10,01,19,0.00
2016,12,10,01,20,0.00
2016,12,10,01,21,0.00
2016,12,10,01,22,0.00
2016,12,10,01,23,0.00
2016,12,10,01,24,0.00
2016,12,10,01,25,0.00
2016,12,10,01,26,0.00
2016,12,10,01,27,0.00
2016,12,10,01,28,0.00
2016,12,10,01,29,0.00
2016,12,10,01,30,0.00
2016,12,10,01,31,0.00
2016,12,10,01,32,0.00
2016,12,10,01,33,0.00
2016,12,10,01,34,0.00
2016,12,10,01,35,0.00
2016,12,10,01,36,0.00
2016,12,10,01,37,0.00
2016,12,10,01,38,0.00
2016,12,10,01,39,0.00
2016,12,10,01,40,0.00
2016,12,10,01,41,0.00
2016,12,10,01,42,0.00
2016,12,10,01,43,0.00
2016,12,10,01,44,0.00
2016,12,10,01,45,0.00
2016,12,10,01,46,0.00
2016,12,10,01,47,0.00
2016,12,10,01,48,0.00
2016,12,10,01,49,0.00
2016,12,10,01,50,0.00
2016,12,10,01,51,0.00
2016,12,10,01,52,0.00
2016,12,10,01,53,0.00
2016,12,10,01,54,0.00
2016,12,10,01,55,0.00
2016,12,10,01,56,0.00
2016,12,10,01,57,0.00
2016,12,10,01,58,0.00
2016,12,10,01,59,0.00
2016,12,10,02,00,0.00
2016,12,10,02,01,0.00
2016,12,10,02,02,0.00
2016,12,10,02,03,0.00
2016,12,10,02,04,0.00
2016,12,10,02,05,0.00
2016,12,10,02,06,0.00
2016,12,10,02,07,0.00
2016,12,10,02,08,0.00
2016,12,10,02,09,0.00
2016,12,10,02,10,0.00
2016,12,10,02,11,0.00
2016,12,10,02,12,0.00
2016,12,10,02,13,0.00
2016,12,10,02,14,0.00
2016,12,10,02,15,0.00
2016,12,10,02,16,0.00
2016,12,10,02,17,0.00
2016,12,10,02,18,0.00
2016,12,10,02,19,0.00
2016,12,10,02,20,0.00
2016,12,10,02,21,0.00
2016,12,10,02,22,0.00
2016,12,10,02,23,0.00
2016,12,10,02,24,0.00
2016,12,10,02,25,0.00
2016,12,10,02,26,0.00
2016,12,10,02,27,0.00
2016,12,10,02,28,0.00
2016,12,10,02,29,0.00
2016,12,10,02,30,0.00
2016,12,10,02,31,0.00
2016,12,10,02,32,0.00
2016,12,10,02,33,0.00
2016,12,10,02,34,0.00
2016,12,10,02,35,0.00
2016,12,10,02,36,0.00
2016,12,10,02,37,0.00
2016,12,10,02,38,0.00
2016,12,10,02,39,0.00
2016,12,10,02,40,0.00
2016,12,10,02,41,0.00
2016,12,10,02,42,0.00
2016,12,10,02,43,0.00
2016,12,10,02,44,0.00
2016,12,10,02,45,0.00
2016,12,10,02,46,0.00
2016,12,10,02,47,0.00
2016,12,10,02,48,0.00
2016,12,10,02,49,0.00
2016,12,10,02,50,0.00
2016,12,10,02,51,0.00
2016,12,10,02,52,0.00
2016,12,10,02,53,0.00
2016,12,10,02,54,0.00
2016,12,10,02,55,0.00
2016,12,10,02,56,0.00
2016,12,10,02,57,0.00
2016,12,10,02,58,0.00
2016,12,10,02,59,0.00
2016,12,10,03,00,0.00
2016,12,10,03,01,0.00
2016,12,10,03,02,0.00
2016,12,10,03,03,0.00
2016,12,10,03,04,0.00
2016,12,10,03,05,0.00
2016,12,10,03,06,0.00
2016,12,10,03,07,0.00
2016,12,10,03,08,0.00
2016,12,10,03,09,0.00
2016,12,10,03,10,0.00
2016,12,10,03,11,0.00
2016,12,10,03,12,0.00
2016,12,10,03,13,0.00
2016,12,10,03,14,0.00
2016,12,10,03,15,0.00
2016,12,10,03,16,0.00
2016,12,10,03,17,0.00
2016,12,10,03,18,0.00
2016,12,10,03,19,0.00
2016,12,10,03,20,0.00
2016,12,10,03,21,0.00
2016,12,10,03,22,0.00
2016,12,10,03,23,0.00
2016,12,10,03,24,0.00
2016,12,10,03,25,0.00
2016,12,10,03,26,0.00
2016,12,10,03,27,0.00
2016,12,10,03,28,0.00
2016,12,10,03,29,0.00
2016,12,10,03,30,0.00
2016,12,10,03,31,0.00
2016,12,10,03,32,0.00
2016,12,10,03,33,0.00
2016,12,10,03,34,0.00
2016,12,10,03,35,0.00
2016,12,10,03,36,0.00
2016,12,10,03,37,0.00
2016,12,10,03,38,0.00
2016,12,10,03,39,0.00
2016,12,10,03,40,0.00
2016,12,10,03,41,0.00
2016,12,10,03,42,0.00
2016,12,10,03,43,0.00
2016,12,10,03,44,0.00
2016,12,10,03,45,0.00
2016,12,10,03,46,0.00
2016,12,10,03,47,0.00
2016,12,10,03,48,0.00
2016,12,10,03,49,0.00
2016,12,10,03,50,0.00
2016,12,10,03,51,0.00
2016,12,10,03,52,0.00
2016,12,10,03,53,0.00
2016,12,10,03,54,0.00
2016,12,10,03,55,0.00
2016,12,10,03,56,0.00
2016,12,10,03,57,0.00
2016,12,10,03,58,0.00
2016,12,10,03,59,0.00
2016,12,10,04,00,0.00
2016,12,10,04,01,0.00
2016,12,10,04,02,0.00
2016,12,10,04,03,0.00
2016,12,10,04,04,0.00
2016,12,10,04,05,0.00
2016,12,10,04,06,0.00
2016,12,10,04,07,0.00
2016,12,10,04,08,0.00
2016,12,10,04,09,0.00
2016,12,10,04,10,0.00
2016,12,10,04,11,0.00
2016,12,10,04,12,0.00
2016,12,10,04,13,0.00
2016,12,10,04,14,0.00
2016,12,10,04,15,0.00
2016,12,10,04,16,0.00
2016,12,10,04,17,0.00
2016,12,10,04,18,0.00
2016,12,10,04,19,0.00
2016,12,10,04,20,0.00
2016,12,10,04,21,0.00
2016,12,10,04,22,0.00
2016,12,10,04,23,0.00
2016,12,10,04,24,0.00
2016,12,10,04,25,0.00
2016,12,10,04,26,0.00
2016,12,10,04,27,0.00
2016,12,10,04,28,0.00
2016,12,10,04,29,0.00
2016,12,10,04,30,0.00
2016,12,10,04,31,0.00
2016,12,10,04,32,0.00
2016,12,10,04,33,0.00
2016,12,10,04,34,0.00
2016,12,10,04,35,0.00
2016,12,10,04,36,0.00
2016,12,10,04,37,0.00
2016,12,10,04,38,0.00
2016,12,10,04,39,0.00
2016,12,10,04,40,0.00
2016,12,10,04,41,0.00
2016,12,10,04,42,0.00
2016,12,10,04,43,0.00
2016,12,10,04,44,0.00
2016,12,10,04,45,0.00
2016,12,10,04,46,0.00
2016,12,10,04,47,0.00
2016,12,10,04,48,0.00
2016,12,10,04,49,0.00
2016,12,10,04,50,0.00
2016,12,10,04,51,0.00
2016,12,10,04,52,0.00
2016,12,10,04,53,0.00
2016,12,10,04,54,0.00
2016,12,10,04,55,0.00
2016,12,10,04,56,0.00
2016,12,10,04,57,0.00
2016,12,10,04,58,0.00
2016,12,10,04,59,0.00
2016,12,10,05,00,0.00
2016,12,10,05,01,0.00
2016,12,10,05,02,0.00
2016,12,10,05,03,0.00
2016,12,10,05,04,0.00
2016,12,10,05,05,0.00
2016,12,10,05,06,0.00
2016,12,10,05,07,0.00
2016,12,10,05,08,0.00
2016,12,10,05,09,0.00
2016,12,10,05,10,0.00
2016,12,10,05,11,0.00
2016,12,10,05,12,0.00
2016,12,10,05,13,0.00
2016,12,10,05,14,0.00
2016,12,10,05,15,0.00
2016,12,10,05,16,0.00
2016,12,10,05,17,0.00
2016,12,10,05,18,0.00
2016,12,10,05,19,0.00
2016,12,10,05,20,0.00
2016,12,10,05,21,0.00
2016,12,10,05,22,0.00
2016,12,10,05,23,0.00
2016,12,10,05,24,0.00
2016,12,10,05,25,0.00
2016,12,10,05,26,0.00
2016,12,10,05,27,0.00
2016,12,10,05,28,0.00
2016,12,10,05,29,0.00
2016,12,10,05,30,0.00
2016,12,10,05,31,0.00
2016,12,10,05,32,0.00
2016,12,10,05,33,0.00
2016,12,10,05,34,0.00
2016,12,10,05,35,0.00
2016,12,10,05,36,0.00
2016,12,10,05,37,0.00
2016,12,10,05,38,0.00
2016,12,10,05,39,0.00
2016,12,10,05,40,0.00
2016,12,10,05,41,0.00
2016,12,10,05,42,0.00
2016,12,10,05,43,0.00
2016,12,10,05,44,0.00
2016,12,10,05,45,0.00
2016,12,10,05,46,0.00
2016,12,10,05,47,0.00
2016,12,10,05,48,0.00
2016,12,10,05,49,0.00
2016,12,10,05,50,0.00
2016,12,10,05,51,0.00
2016,12,10,05,52,0.00
2016,12,10,05,53,0.00
2016,12,10,05,54,0.00
2016,12,10,05,55,0.00
2016,12,10,05,56,0.00
2016,12,10,05,57,0.00
2016,12,10,05,58,0.00
2016,12,10,05,59,0.00
2016,12,10,06,00,0.00
2016,12,10,06,01,0.00
2016,12,10,06,02,0.00
2016,12,10,06,03,0.00
2016,12,10,06,04,0.00
2016,12,10,06,05,0.00
2016,12,10,06,06,0.00
2016,12,10,06,07,0.00
2016,12,10,06,08,0.00
2016,12,10,06,09,0.00
2016,12,10,06,10,0.00
2016,12,10,06,11,0.00
2016,12,10,06,12,0.00
2016,12,10,06,13,0.00
2016,12,10,06,14,0.00
2016,12,10,06,15,0.00
2016,12,10,06,16,0.00
2016,12,10,06,17,0.00
2016,12,10,06,18,0.00
2016,12,10,06,19,0.00
2016,12,10,06,20,0.00
2016,12,10,06,21,0.00
2016,12,10,06,22,0.00
2016,12,10,06,23,0.00
2016,12,10,06,24,0.00
2016,12,10,06,25,0.00
2016,12,10,06,26,0.00
2016,12,10,06,27,0.00
2016,12,10,06,28,0.00
2016,12,10,06,29,0.00
2016,12,10,06,30,0.00
2016,12,10,06,31,0.00
2016,12,10,06,32,0.00
2016,12,10,06,33,0.00
2016,12,10,06,34,0.00
2016,12,10,06,35,0.00
2016,12,10,06,36,0.00
2016,12,10,06,37,0.00
2016,12,10,06,38,0.00
2016,12,10,06,39,0.00
2016,12,10,06,40,0.00
2016,12,10,06,41,0.00
2016,12,10,06,42,0.00
2016,12,10,06,43,0.00
2016,12,10,06,44,0.00
2016,12,10,06,45,0.00
2016,12,10,06,46,0.00
2016,12,10,06,47,0.00
2016,12,10,06,48,0.00
2016,12,10,06,49,0.00
2016,12,10,06,50,0.00
2016,12,10,06,51,0.00
2016,12,10,06,52,0.00
2016,12,10,06,53,0.00
2016,12,10,06,54,0.00
2016,12,10,06,55,0.00
2016,12,10,06,56,0.00
2016,12,10,06,57,0.00
2016,12,10,06,58,0.00
2016,12,10,06,59,0.00
2016,12,10,07,00,0.00
2016,12,10,07,01,0.00
2016,12,10,07,02,0.00
2016,12,10,07,03,0.00
2016,12,10,07,04,0.00
2016,12,10,07,05,0.00
2016,12,10,07,06,0.00
2016,12,10,07,07,0.00
2016,12,10,07,08,0.00
2016,12,10,07,09,0.00
2016,12,10,07,10,0.00
2016,12,10,07,11,0.00
2016,12,10,07,12,0.00
2016,12,10,07,13,0.00
2016,12,10,07,14,0.00
2016,12,10,07,15,0.00
2016,12,10,07,16,0.00
2016,12,10,07,17,0.00
2016,12,10,07,18,0.00
2016,12,10,07,19,0.00
2016,12,10,07,20,0.00
2016,12,10,07,21,0.00
2016,12,10,07,22,0.00
2016,12,10,07,23,0.00
2016,12,10,07,24,0.00
2016,12,10,07,25,0.00
2016,12,10,07,26,0.00
2016,12,10,07,27,0.00
2016,12,10,07,28,0.00
2016,12,10,07,29,0.00
2016,12,10,07,30,0.00
2016,12,10,07,31,0.00
2016,12,10,07,32,0.00
2016,12,10,07,33,0.00
2016,12,10,07,34,0.00
2016,12,10,07,35,0.00
2016,12,10,07,36,0.00
2016,12,10,07,37,0.00
2016,12,10,07,38,0.00
2016,12,10,07,39,0.00
2016,12,10,07,40,0.00
2016,12,10,07,41,0.00
2016,12,10,07,42,0.00
2016,12,10,07,43,0.00
2016,12,10,07,44,0.00
2016,12,10,07,45,0.00
2016,12,10,07,46,0.00
2016,12,10,07,47,0.00
2016,12,10,07,48,0.00
2016,12,10,07,49,0.00
2016,12,10,07,50,0.00
2016,12,10,07,51,0.00
2016,12,10,07,52,0.00
2016,12,10,07,53,0.00
2016,12,10,07,54,0.00
2016,12,10,07,55,0.00
2016,12,10,07,56,0.00
2016,12,10,07,57,0.00
2016,12,10,07,58,0.00
2016,12,10,07,59,0.00
2016,12,10,08,00,0.00
2016,12,10,08,01,0.00
2016,12,10,08,02,0.00
2016,12,10,08,03,0.00
2016,12,10,08,04,0.00
2016,12,10,08,05,0.00
2016,12,10,08,06,0.00
2016,12,10,08,07,0.00
2016,12,10,08,08,0.00
2016,12,10,08,09,0.00
2016,12,10,08,10,0.00
2016,12,10,08,11,0.00
2016,12,10,08,12,0.00
2016,12,10,08,13,0.00
2016,12,10,08,14,0.00
2016,12,10,08,15,0.00
2016,12,10,08,16,0.00
2016,12,10,08,17,0.00
2016,12,10,08,18,0.00
2016,12,10,08,19,0.00
2016,12,10,08,20,0.00
2016,12,10,08,21,0.00
2016,12,10,08,22,0.00
2016,12,10,08,23,0.00
2016,12,10,08,24,0.00
2016,12,10,08,25,0.00
2016,12,10,08,26,0.00
2016,12,10,08,27,0.00
2016,12,10,08,28,0.00
2016,12,10,08,29,0.00
2016,12,10,08,30,0.00
2016,12,10,08,31,0.00
2016,12,10,08,32,0.00
2016,12,10,08,33,0.00
2016,12,10,08,34,0.00
2016,12,10,08,35,0.00
2016,12,10,08,36,0.00
2016,12,10,08,37,0.00
2016,12,10,08,38,0.00
2016,12,10,08,39,1.50
2016,12,10,08,40,5.00
2016,12,10,08,41,5.00
2016,12,10,08,42,2.00
2016,12,10,08,43,0.00
2016,12,10,08,44,0.00
2016,12,10,08,45,0.00
2016,12,10,08,46,0.00
2016,12,10,08,47,0.00
2016,12,10,08,48,0.00
2016,12,10,08,49,0.00
2016,12,10,08,50,0.00
2016,12,10,08,51,0.00
2016,12,10,08,52,0.00
2016,12,10,08,53,0.00
2016,12,10,08,54,0.00
2016,12,10,08,55,2.40
2016,12,10,08,56,16.80
2016,12,10,08,57,20.40
2016,12,10,08,58,23.00
2016,12,10,08,59,25.80
2016,12,10,09,00,29.30
2016,12,10,09,01,30.00
2016,12,10,09,02,28.30
2016,12,10,09,03,28.00
2016,12,10,09,04,27.60
2016,12,10,09,05,26.00
2016,12,10,09,06,26.00
2016,12,10,09,07,26.00
2016,12,10,09,08,26.00
2016,12,10,09,09,25.20
2016,12,10,09,10,25.00
2016,12,10,09,11,21.50
2016,12,10,09,12,22.70
2016,12,10,09,13,20.50
2016,12,10,09,14,19.00
2016,12,10,09,15,19.00
2016,12,10,09,16,19.00
2016,12,10,09,17,18.40
2016,12,10,09,18,18.00
2016,12,10,09,19,18.90
2016,12,10,09,20,19.10
2016,12,10,09,21,21.00
2016,12,10,09,22,21.50
2016,12,10,09,23,23.00
2016,12,10,09,24,22.10
2016,12,10,09,25,21.00
2016,12,10,09,26,19.60
2016,12,10,09,27,18.20
2016,12,10,09,28,14.40
2016,12,10,09,29,13.70
2016,12,10,09,30,12.50
2016,12,10,09,31,14.00
2016,12,10,09,32,14.90
2016,12,10,09,33,16.00
2016,12,10,09,34,14.80
2016,12,10,09,35,15.50
2016,12,10,09,36,16.00
2016,12,10,09,37,14.10
2016,12,10,09,38,14.30
2016,12,10,09,39,16.90
2016,12,10,09,40,19.70
2016,12,10,09,41,21.90
2016,12,10,09,42,24.10
2016,12,10,09,43,25.60
2016,12,10,09,44,26.00
2016,12,10,09,45,31.40
2016,12,10,09,46,33.20
2016,12,10,09,47,35.00
2016,12,10,09,48,35.00
2016,12,10,09,49,35.00
2016,12,10,09,50,35.00
2016,12,10,09,51,35.00
2016,12,10,09,52,36.40
2016,12,10,09,53,37.00
2016,12,10,09,54,40.00
2016,12,10,09,55,44.70
2016,12,10,09,56,50.80
2016,12,10,09,57,56.00
2016,12,10,09,58,64.60
2016,12,10,09,59,80.00
2016,12,10,10,00,86.10
2016,12,10,10,01,90.10
2016,12,10,10,02,90.10
2016,12,10,10,03,88.10
2016,12,10,10,04,87.00
2016,12,10,10,05,81.00
2016,12,10,10,06,81.00
2016,12,10,10,07,85.80
2016,12,10,10,08,94.40
2016,12,10,10,09,97.00
2016,12,10,10,10,97.80
2016,12,10,10,11,97.10
2016,12,10,10,12,95.20
2016,12,10,10,13,97.70
2016,12,10,10,14,101.30
2016,12,10,10,15,104.00
2016,12,10,10,16,102.90
2016,12,10,10,17,102.00
2016,12,10,10,18,93.80
2016,12,10,10,19,85.30
2016,12,10,10,20,79.30
2016,12,10,10,21,80.00
2016,12,10,10,22,75.40
2016,12,10,10,23,73.30
2016,12,10,10,24,72.00
2016,12,10,10,25,72.00
2016,12,10,10,26,72.00
2016,12,10,10,27,73.50
2016,12,10,10,28,72.30
2016,12,10,10,29,69.50
2016,12,10,10,30,65.00
2016,12,10,10,31,62.30
2016,12,10,10,32,56.90
2016,12,10,10,33,59.00
2016,12,10,10,34,64.30
2016,12,10,10,35,73.30
2016,12,10,10,36,81.70
2016,12,10,10,37,85.70
2016,12,10,10,38,82.30
2016,12,10,10,39,76.00
2016,12,10,10,40,76.00
2016,12,10,10,41,76.40
2016,12,10,10,42,81.90
2016,12,10,10,43,92.00
2016,12,10,10,44,97.20
2016,12,10,10,45,97.10
2016,12,10,10,46,87.80
2016,12,10,10,47,76.80
2016,12,10,10,48,78.80
2016,12,10,10,49,68.40
2016,12,10,10,50,61.70
2016,12,10,10,51,57.70
2016,12,10,10,52,56.00
2016,12,10,10,53,54.40
2016,12,10,10,54,49.50
2016,12,10,10,55,49.20
2016,12,10,10,56,52.70
2016,12,10,10,57,60.90
2016,12,10,10,58,63.00
2016,12,10,10,59,61.40
2016,12,10,11,00,61.80
2016,12,10,11,01,64.40
2016,12,10,11,02,68.40
2016,12,10,11,03,73.80
2016,12,10,11,04,67.70
2016,12,10,11,05,61.20
2016,12,10,11,06,64.30
2016,12,10,11,07,60.60
2016,12,10,11,08,53.00
2016,12,10,11,09,47.00
2016,12,10,11,10,42.80
2016,12,10,11,11,42.00
2016,12,10,11,12,41.80
2016,12,10,11,13,40.30
2016,12,10,11,14,42.00
2016,12,10,11,15,43.50
2016,12,10,11,16,46.00
2016,12,10,11,17,46.00
2016,12,10,11,18,53.00
2016,12,10,11,19,61.70
2016,12,10,11,20,66.60
2016,12,10,11,21,68.70
2016,12,10,11,22,66.50
2016,12,10,11,23,64.10
2016,12,10,11,24,58.60
2016,12,10,11,25,51.10
2016,12,10,11,26,44.70
2016,12,10,11,27,36.90
2016,12,10,11,28,30.70
2016,12,10,11,29,25.90
2016,12,10,11,30,23.00
2016,12,10,11,31,22.50
2016,12,10,11,32,21.00
2016,12,10,11,33,21.00
2016,12,10,11,34,19.40
2016,12,10,11,35,18.00
2016,12,10,11,36,18.00
2016,12,10,11,37,18.00
2016,12,10,11,38,18.90
2016,12,10,11,39,18.00
2016,12,10,11,40,18.30
2016,12,10,11,41,19.80
2016,12,10,11,42,22.10
2016,12,10,11,43,23.00
2016,12,10,11,44,23.00
2016,12,10,11,45,31.00
2016,12,10,11,46,36.90
2016,12,10,11,47,39.00
2016,12,10,11,48,40.90
2016,12,10,11,49,49.30
2016,12,10,11,50,57.60
2016,12,10,11,51,65.80
2016,12,10,11,52,75.50
2016,12,10,11,53,92.50
2016,12,10,11,54,122.50
2016,12,10,11,55,159.30
2016,12,10,11,56,192.70
2016,12,10,11,57,222.40
2016,12,10,11,58,240.40
2016,12,10,11,59,251.60
2016,12,10,12,00,251.20
2016,12,10,12,01,247.10
2016,12,10,12,02,249.20
2016,12,10,12,03,237.30
2016,12,10,12,04,244.70
2016,12,10,12,05,188.20
2016,12,10,12,06,159.60
2016,12,10,12,07,145.10
2016,12,10,12,08,138.90
2016,12,10,12,09,135.20
2016,12,10,12,10,126.10
2016,12,10,12,11,112.70
2016,12,10,12,12,102.00
2016,12,10,12,13,98.30
2016,12,10,12,14,96.60
2016,12,10,12,15,86.40
2016,12,10,12,16,85.80
2016,12,10,12,17,90.80
2016,12,10,12,18,100.80
2016,12,10,12,19,116.40
2016,12,10,12,20,129.00
2016,12,10,12,21,139.70
2016,12,10,12,22,147.00
2016,12,10,12,23,151.00
2016,12,10,12,24,148.90
2016,12,10,12,25,143.80
2016,12,10,12,26,143.30
2016,12,10,12,27,150.30
2016,12,10,12,28,198.90
2016,12,10,12,29,168.70
2016,12,10,12,30,119.20
2016,12,10,12,31,94.40
2016,12,10,12,32,84.90
2016,12,10,12,33,83.00
2016,12,10,12,34,87.60
2016,12,10,12,35,91.00
2016,12,10,12,36,91.00
2016,12,10,12,37,69.40
2016,12,10,12,38,52.30
2016,12,10,12,39,45.20
2016,12,10,12,40,41.40
2016,12,10,12,41,40.00
2016,12,10,12,42,39.50
2016,12,10,12,43,37.80
2016,12,10,12,44,34.20
2016,12,10,12,45,30.60
2016,12,10,12,46,28.20
2016,12,10,12,47,28.20
2016,12,10,12,48,30.50
2016,12,10,12,49,33.80
2016,12,10,12,50,40.30
2016,12,10,12,51,50.90
2016,12,10,12,52,67.70
2016,12,10,12,53,93.50
2016,12,10,12,54,133.40
2016,12,10,12,55,169.80
2016,12,10,12,56,172.30
2016,12,10,12,57,164.40
2016,12,10,12,58,161.10
2016,12,10,12,59,153.30
2016,12,10,13,00,141.80
2016,12,10,13,01,128.60
2016,12,10,13,02,125.00
2016,12,10,13,03,115.10
2016,12,10,13,04,105.80
2016,12,10,13,05,92.30
2016,12,10,13,06,77.00
2016,12,10,13,07,65.40
2016,12,10,13,08,60.00
2016,12,10,13,09,60.00
2016,12,10,13,10,50.00
2016,12,10,13,11,44.30
2016,12,10,13,12,45.90
2016,12,10,13,13,47.20
2016,12,10,13,14,49.00
2016,12,10,13,15,49.00
2016,12,10,13,16,48.10
2016,12,10,13,17,47.00
2016,12,10,13,18,47.00
2016,12,10,13,19,47.00
2016,12,10,13,20,48.80
2016,12,10,13,21,53.30
2016,12,10,13,22,61.30
2016,12,10,13,23,71.00
2016,12,10,13,24,79.10
2016,12,10,13,25,85.60
2016,12,10,13,26,93.40
2016,12,10,13,27,101.90
2016,12,10,13,28,109.60
2016,12,10,13,29,122.40
2016,12,10,13,30,142.40
2016,12,10,13,31,157.70
2016,12,10,13,32,163.00
2016,12,10,13,33,163.00
2016,12,10,13,34,184.40
2016,12,10,13,35,191.90
2016,12,10,13,36,172.40
2016,12,10,13,37,139.80
2016,12,10,13,38,114.80
2016,12,10,13,39,110.80
2016,12,10,13,40,120.10
2016,12,10,13,41,122.60
2016,12,10,13,42,115.80
2016,12,10,13,43,116.00
2016,12,10,13,44,120.00
2016,12,10,13,45,133.80
2016,12,10,13,46,137.00
2016,12,10,13,47,218.00
2016,12,10,13,48,212.80
2016,12,10,13,49,189.30
2016,12,10,13,50,161.10
2016,12,10,13,51,133.60
2016,12,10,13,52,130.00
2016,12,10,13,53,106.80
2016,12,10,13,54,86.30
2016,12,10,13,55,72.50
2016,12,10,13,56,69.80
2016,12,10,13,57,70.80
2016,12,10,13,58,77.80
2016,12,10,13,59,83.20
2016,12,10,14,00,84.80
2016,12,10,14,01,80.80
2016,12,10,14,02,73.70
2016,12,10,14,03,67.50
2016,12,10,14,04,66.50
2016,12,10,14,05,62.00
2016,12,10,14,06,62.00
2016,12,10,14,07,78.00
2016,12,10,14,08,145.00
2016,12,10,14,09,163.90
2016,12,10,14,10,108.50
2016,12,10,14,11,106.30
2016,12,10,14,12,130.80
2016,12,10,14,13,100.90
2016,12,10,14,14,91.00
2016,12,10,14,15,84.70
2016,12,10,14,16,69.80
2016,12,10,14,17,64.40
2016,12,10,14,18,62.00
2016,12,10,14,19,55.20
2016,12,10,14,20,51.30
2016,12,10,14,21,50.90
2016,12,10,14,22,49.00
2016,12,10,14,23,48.40
2016,12,10,14,24,47.80
2016,12,10,14,25,50.00
2016,12,10,14,26,51.00
2016,12,10,14,27,49.60
2016,12,10,14,28,46.60
2016,12,10,14,29,40.60
2016,12,10,14,30,34.70
2016,12,10,14,31,31.20
2016,12,10,14,32,28.00
2016,12,10,14,33,28.80
2016,12,10,14,34,30.00
2016,12,10,14,35,28.80
2016,12,10,14,36,28.00
2016,12,10,14,37,25.50
2016,12,10,14,38,23.10
2016,12,10,14,39,20.70
2016,12,10,14,40,19.00
2016,12,10,14,41,18.60
2016,12,10,14,42,18.50
2016,12,10,14,43,19.00
2016,12,10,14,44,26.70
2016,12,10,14,45,34.00
2016,12,10,14,46,38.40
2016,12,10,14,47,33.00
2016,12,10,14,48,25.40
2016,12,10,14,49,23.00
2016,12,10,14,50,23.00
2016,12,10,14,51,23.00
2016,12,10,14,52,28.70
2016,12,10,14,53,34.40
2016,12,10,14,54,35.00
2016,12,10,14,55,36.90
2016,12,10,14,56,39.00
2016,12,10,14,57,39.00
2016,12,10,14,58,39.00
2016,12,10,14,59,41.30
2016,12,10,15,00,45.60
2016,12,10,15,01,48.20
2016,12,10,15,02,49.00
2016,12,10,15,03,47.30
2016,12,10,15,04,47.00
2016,12,10,15,05,44.90
2016,12,10,15,06,32.20
2016,12,10,15,07,29.30
2016,12,10,15,08,27.00
2016,12,10,15,09,25.40
2016,12,10,15,10,25.00
2016,12,10,15,11,23.50
2016,12,10,15,12,23.00
2016,12,10,15,13,21.00
2016,12,10,15,14,20.60
2016,12,10,15,15,18.70
2016,12,10,15,16,17.20
2016,12,10,15,17,16.00
2016,12,10,15,18,16.00
2016,12,10,15,19,17.50
2016,12,10,15,20,18.90
2016,12,10,15,21,20.90
2016,12,10,15,22,21.00
2016,12,10,15,23,21.00
2016,12,10,15,24,21.80
2016,12,10,15,25,23.90
2016,12,10,15,26,25.00
2016,12,10,15,27,25.70
2016,12,10,15,28,25.20
2016,12,10,15,29,21.60
2016,12,10,15,30,17.80
2016,12,10,15,31,16.00
2016,12,10,15,32,16.00
2016,12,10,15,33,18.70
2016,12,10,15,34,25.40
2016,12,10,15,35,28.00
2016,12,10,15,36,30.90
2016,12,10,15,37,32.00
2016,12,10,15,38,32.90
2016,12,10,15,39,31.70
2016,12,10,15,40,30.00
2016,12,10,15,41,29.40
2016,12,10,15,42,27.10
2016,12,10,15,43,24.50
2016,12,10,15,44,20.50
2016,12,10,15,45,18.30
2016,12,10,15,46,16.40
2016,12,10,15,47,13.90
2016,12,10,15,48,10.60
2016,12,10,15,49,9.00
2016,12,10,15,50,8.30
2016,12,10,15,51,7.00
2016,12,10,15,52,5.80
2016,12,10,15,53,5.00
2016,12,10,15,54,6.60
2016,12,10,15,55,7.00
2016,12,10,15,56,7.00
2016,12,10,15,57,7.00
2016,12,10,15,58,7.00
2016,12,10,15,59,7.00
2016,12,10,16,00,6.00
2016,12,10,16,01,5.00
2016,12,10,16,02,5.00
2016,12,10,16,03,5.00
2016,12,10,16,04,5.00
2016,12,10,16,05,5.00
2016,12,10,16,06,3.60
2016,12,10,16,07,0.00
2016,12,10,16,08,0.00
2016,12,10,16,09,0.00
2016,12,10,16,10,0.00
2016,12,10,16,11,0.00
2016,12,10,16,12,0.00
2016,12,10,16,13,0.00
2016,12,10,16,14,0.00
2016,12,10,16,15,0.00
2016,12,10,16,16,0.00
2016,12,10,16,17,0.00
2016,12,10,16,18,0.00
2016,12,10,16,19,0.00
2016,12,10,16,20,0.00
2016,12,10,16,21,0.00
2016,12,10,16,22,0.00
2016,12,10,16,23,0.00
2016,12,10,16,24,0.00
2016,12,10,16,25,0.00
2016,12,10,16,26,0.00
2016,12,10,16,27,0.00
2016,12,10,16,28,0.00
2016,12,10,16,29,0.00
2016,12,10,16,30,0.00
2016,12,10,16,31,0.00
2016,12,10,16,32,0.00
2016,12,10,16,33,0.00
2016,12,10,16,34,0.00
2016,12,10,16,35,0.00
2016,12,10,16,36,0.00
2016,12,10,16,37,0.00
2016,12,10,16,38,0.00
2016,12,10,16,39,0.00
2016,12,10,16,40,0.00
2016,12,10,16,41,0.00
2016,12,10,16,42,0.00
2016,12,10,16,43,0.00
2016,12,10,16,44,0.00
2016,12,10,16,45,0.00
2016,12,10,16,46,0.00
2016,12,10,16,47,0.00
2016,12,10,16,48,0.00
2016,12,10,16,49,0.00
2016,12,10,16,50,0.00
2016,12,10,16,51,0.00
2016,12,10,16,52,0.00
2016,12,10,16,53,0.00
2016,12,10,16,54,0.00
2016,12,10,16,55,0.00
2016,12,10,16,56,0.00
2016,12,10,16,57,0.00
2016,12,10,16,58,0.00
2016,12,10,16,59,0.00
2016,12,10,17,00,0.00
2016,12,10,17,01,0.00
2016,12,10,17,02,0.00
2016,12,10,17,03,0.00
2016,12,10,17,04,0.00
2016,12,10,17,05,0.00
2016,12,10,17,06,0.00
2016,12,10,17,07,0.00
2016,12,10,17,08,0.00
2016,12,10,17,09,0.00
2016,12,10,17,10,0.00
2016,12,10,17,11,0.00
2016,12,10,17,12,0.00
2016,12,10,17,13,0.00
2016,12,10,17,14,0.00
2016,12,10,17,15,0.00
2016,12,10,17,16,0.00
2016,12,10,17,17,0.00
2016,12,10,17,18,0.00
2016,12,10,17,19,0.00
2016,12,10,17,20,0.00
2016,12,10,17,21,0.00
2016,12,10,17,22,0.00
2016,12,10,17,23,0.00
2016,12,10,17,24,0.00
2016,12,10,17,25,0.00
2016,12,10,17,26,0.00
2016,12,10,17,27,0.00
2016,12,10,17,28,0.00
2016,12,10,17,29,0.00
2016,12,10,17,30,0.00
2016,12,10,17,31,0.00
2016,12,10,17,32,0.00
2016,12,10,17,33,0.00
2016,12,10,17,34,0.00
2016,12,10,17,35,0.00
2016,12,10,17,36,0.00
2016,12,10,17,37,0.00
2016,12,10,17,38,0.00
2016,12,10,17,39,0.00
2016,12,10,17,40,0.00
2016,12,10,17,41,0.00
2016,12,10,17,42,0.00
2016,12,10,17,43,0.00
2016,12,10,17,44,0.00